Location: Oshawa
(43.9000°N, 78.8670°W)
Time: 19:48:15
(UTC-04:00)

Cosmos 1408 Rocket - Visible Passes

Search period start: 29 September 2016 00:00
Search period end: 09 October 2016 00:00
Orbit: 601 x 631 km, 82.6° (Epoch: 29 September)

Date Brightness Start Highest point End Pass type
(mag) Time Alt. Az. Time Alt. Az. Time Alt. Az.
29 Sep 3.7 19:28:20 10° N 19:32:35 49° ENE 19:36:46 10° SSE visible
29 Sep 6.6 21:07:30 10° NW 21:09:54 15° W 21:12:18 10° WSW visible
30 Sep 3.5 19:44:45 10° N 19:49:07 89° W 19:53:26 10° S visible
01 Oct 4.6 20:01:23 10° NNW 20:05:34 47° W 20:09:42 10° SSW visible
02 Oct 5.9 20:18:18 10° NNW 20:21:56 26° W 20:25:31 10° SW visible
03 Oct 6.7 20:35:44 10° NW 20:38:13 15° W 20:40:40 10° WSW visible
04 Oct 3.5 19:13:02 10° N 19:17:24 89° E 19:21:42 10° S visible
05 Oct 4.6 19:29:40 10° NNW 19:33:51 49° W 19:38:00 10° SSW visible
06 Oct 5.9 19:46:34 10° NNW 19:50:13 27° W 19:53:51 10° SSW visible
07 Oct 6.9 06:42:16 10° ESE 06:45:00 16° E 06:47:44 10° NE visible
07 Oct 6.9 20:03:57 10° NW 20:06:30 15° W 20:09:02 10° WSW visible
